Change the Weather History Date:

Tuesday, October 1, 2013

  Actual Average Record
Temperature  
Mean Temperature 53 °F 53 °F  
Max Temperature 58 °F 63 °F 83 °F (1988)
Min Temperature 47 °F 44 °F 31 °F (1999)
Degree Days  
Heating Degree Days 12 12  
Month to date heating degree days 12 12  
Since 1 July heating degree days 303 637  
Cooling Degree Days 0 0  
Month to date cooling degree days 0 0  
Year to date cooling degree days 39 19  
Growing Degree Days 2 (Base 50)    
Moisture  
Dew Point 48 °F    
Average Humidity 83    
Maximum Humidity 89    
Minimum Humidity 77    
Precipitation  
Precipitation 0.49 in 0.21 in 2.49 in (1981)
Month to date precipitation 0.49 0.21  
Year to date precipitation 71.90 60.75  
Sea Level Pressure  
Sea Level Pressure 29.98 in    
Wind  
Wind Speed 4 mph (SSW)    
Max Wind Speed 14 mph    
Max Gust Speed 20 mph    
Visibility 5 miles    
Events Rain    
T = Trace of Precipitation, MM = Missing Value Source: NWS Daily Summary

Daily Weather History Graph

Daily Weather History Graph

Search for Another Location

Airport or City:

Trip Planner

Search our weather history database for the weather conditions in past years. The results will help you decide how hot, cold, wet, or windy it might be!

Date:

Astronomy

Oct. 01, 2013 Rise Set
Actual Time 7:17 AM PDT 6:56 PM PDT
Civil Twilight 6:47 AM PDT 7:27 PM PDT
Nautical Twilight 6:10 AM PDT 8:03 PM PDT
Astronomical Twilight 5:34 AM PDT 8:39 PM PDT
Moon 3:45 AM PDT (10/1) 5:13 PM PDT (10/1)
Length of Visible Light 12h 40m
Length of Day
11h 38m
Waning Crescent, 11% of the Moon is Illuminated
Oct 1
Waning Crescent
Oct 4
New
Oct 11
First Quarter
Oct 18
Full
Oct 26
Last Quarter

Hourly Weather History & Observations

Time (PDT) Temp. Dew Point Humidity Pressure Visibility Wind Dir Wind Speed Gust Speed Precip Events Conditions
12:53 AM 48.9 °F 45.0 °F 86% 29.86 in 10.0 mi ENE 3.5 mph - 0.00 in   Overcast
1:53 AM 48.9 °F 45.0 °F 86% 29.87 in 9.0 mi Calm Calm - 0.03 in   Overcast
2:53 AM 48.0 °F 44.1 °F 86% 29.87 in 8.0 mi Calm Calm - N/A   Mostly Cloudy
3:53 AM 48.9 °F 45.0 °F 86% 29.87 in 8.0 mi Calm Calm - N/A   Overcast
4:53 AM 48.9 °F 45.0 °F 86% 29.86 in 8.0 mi Variable 3.5 mph - N/A   Overcast
5:53 AM 48.0 °F 43.0 °F 83% 29.87 in 7.0 mi ESE 4.6 mph - 0.00 in Rain Light Rain
6:16 AM 48.2 °F 44.6 °F 87% 29.88 in 10.0 mi SE 4.6 mph - 0.01 in   Overcast
6:53 AM 48.0 °F 44.1 °F 86% 29.89 in 10.0 mi Variable 4.6 mph - 0.01 in   Overcast
7:53 AM 48.0 °F 44.1 °F 86% 29.91 in 10.0 mi Calm Calm - 0.00 in   Overcast
8:22 AM 48.2 °F 44.6 °F 87% 29.92 in 9.0 mi ESE 3.5 mph - N/A   Overcast
8:53 AM 50.0 °F 45.0 °F 83% 29.92 in 9.0 mi ENE 4.6 mph - N/A   Mostly Cloudy
9:12 AM 48.2 °F 44.6 °F 87% 29.93 in 1.8 mi Calm Calm - 0.02 in Rain Heavy Rain
9:22 AM 48.2 °F 44.6 °F 87% 29.93 in 3.0 mi East 4.6 mph - 0.04 in Rain Light Rain
9:53 AM 51.1 °F 46.0 °F 83% 29.94 in 9.0 mi East 5.8 mph - 0.05 in   Partly Cloudy
10:53 AM 55.0 °F 48.0 °F 77% 29.95 in 8.0 mi Calm Calm - 0.00 in   Mostly Cloudy
11:53 AM 54.0 °F 48.0 °F 80% 29.96 in 5.0 mi Variable 5.8 mph - 0.00 in Rain Light Rain
12:53 PM 55.0 °F 48.0 °F 77% 29.97 in 5.0 mi South 11.5 mph 17.3 mph 0.02 in Rain Light Rain
1:09 PM 53.6 °F 48.2 °F 82% 29.97 in 2.5 mi Variable 5.8 mph - 0.03 in Rain Rain
1:34 PM 53.6 °F 48.2 °F 82% 29.97 in 3.0 mi SSE 9.2 mph - 0.06 in Rain Light Rain
1:41 PM 53.6 °F 48.2 °F 82% 29.97 in 2.0 mi Variable 5.8 mph 16.1 mph 0.07 in Rain Light Rain
1:53 PM 53.1 °F 48.0 °F 83% 29.97 in 2.0 mi SSE 5.8 mph - 0.09 in Rain Light Rain
2:00 PM 53.6 °F 48.2 °F 82% 29.98 in 1.8 mi Variable 3.5 mph - 0.02 in Rain Light Rain
2:04 PM 53.6 °F 48.2 °F 82% 29.98 in 3.0 mi Variable 4.6 mph - 0.02 in Rain Light Rain
2:13 PM 53.6 °F 48.2 °F 82% 29.98 in 2.5 mi South 5.8 mph - 0.03 in Rain Rain
2:22 PM 53.6 °F 48.2 °F 82% 29.98 in 3.0 mi Calm Calm - 0.03 in Rain Light Rain
2:25 PM 53.6 °F 48.2 °F 82% 29.98 in 2.5 mi Variable 6.9 mph - 0.03 in Rain Light Rain
2:29 PM 53.6 °F 48.2 °F 82% 29.98 in 1.2 mi South 11.5 mph 17.3 mph 0.05 in Rain Rain
2:39 PM 53.6 °F 50.0 °F 88% 29.98 in 2.5 mi SSW 8.1 mph 17.3 mph 0.08 in Rain Light Rain
2:46 PM 53.6 °F 48.2 °F 82% 29.99 in 4.0 mi SSW 10.4 mph 17.3 mph 0.08 in Rain Light Rain
2:53 PM 54.0 °F 50.0 °F 86% 29.99 in 5.0 mi SSW 8.1 mph - 0.08 in Rain Light Rain
3:01 PM 53.6 °F 50.0 °F 88% 29.98 in 7.0 mi South 9.2 mph - 0.00 in   Overcast
3:23 PM 53.6 °F 48.2 °F 82% 29.99 in 4.0 mi South 9.2 mph 18.4 mph 0.00 in Rain Light Rain
3:53 PM 55.0 °F 51.1 °F 86% 29.99 in 3.0 mi SSW 8.1 mph - 0.03 in Rain Light Rain
4:09 PM 55.4 °F 51.8 °F 88% 29.99 in 2.5 mi SSW 6.9 mph - 0.03 in Rain Light Rain
4:15 PM 55.4 °F 51.8 °F 88% 29.99 in 4.0 mi SSW 8.1 mph - 0.03 in Rain Light Rain
4:28 PM 57.2 °F 53.6 °F 88% 29.99 in 5.0 mi SW 9.2 mph - 0.03 in   Overcast
4:48 PM 57.2 °F 51.8 °F 82% 30.00 in 3.0 mi SW 6.9 mph - 0.03 in Rain Light Rain
4:53 PM 57.0 °F 52.0 °F 83% 30.01 in 3.0 mi WSW 12.7 mph 16.1 mph 0.03 in Rain Light Rain
5:53 PM 55.9 °F 50.0 °F 80% 30.02 in 7.0 mi WSW 10.4 mph - 0.01 in   Mostly Cloudy
6:13 PM 55.4 °F 50.0 °F 82% 30.02 in 5.0 mi WSW 9.2 mph - 0.00 in Rain Light Rain
6:22 PM 55.4 °F 51.8 °F 88% 30.02 in 2.5 mi WSW 6.9 mph - 0.01 in Rain Light Rain
6:30 PM 55.4 °F 50.0 °F 82% 30.03 in 5.0 mi West 8.1 mph - 0.01 in Rain Light Rain
6:53 PM 55.0 °F 50.0 °F 83% 30.04 in 7.0 mi West 8.1 mph - 0.01 in   Overcast
7:06 PM 55.4 °F 50.0 °F 82% 30.04 in 3.0 mi NW 10.4 mph 17.3 mph 0.00 in Rain Rain
7:13 PM 55.4 °F 48.2 °F 77% 30.04 in 2.0 mi WNW 5.8 mph 17.3 mph 0.04 in Rain Rain
7:16 PM 53.6 °F 48.2 °F 82% 30.04 in 4.0 mi WNW 5.8 mph - 0.04 in Rain Light Rain
7:32 PM 53.6 °F 50.0 °F 88% 30.05 in 1.8 mi West 8.1 mph - 0.06 in Rain Heavy Rain
7:38 PM 53.6 °F 50.0 °F 88% 30.05 in 3.0 mi West 8.1 mph 17.3 mph 0.08 in Rain Light Rain
7:53 PM 54.0 °F 48.9 °F 83% 30.06 in 9.0 mi West 4.6 mph - 0.08 in   Overcast
8:53 PM 54.0 °F 50.0 °F 86% 30.07 in 7.0 mi Calm Calm - N/A   Overcast
9:30 PM 53.6 °F 50.0 °F 88% 30.07 in 6.0 mi Calm Calm - N/A   Overcast
9:42 PM 53.6 °F 50.0 °F 88% 30.07 in 6.0 mi Calm Calm - N/A   Overcast
9:53 PM 53.1 °F 50.0 °F 89% 30.08 in 6.0 mi Calm Calm - N/A   Overcast
10:02 PM 53.6 °F 50.0 °F 88% 30.08 in 7.0 mi Calm Calm - N/A   Overcast
10:53 PM 53.1 °F 48.9 °F 86% 30.08 in 6.0 mi Calm Calm - N/A   Overcast
11:53 PM 52.0 °F 48.0 °F 86% 30.09 in 7.0 mi Calm Calm - N/A   Overcast